TimeCST,TemperatureF,Dew PointF,Humidity,Sea Level PressureIn,VisibilityMPH,Wind Direction,Wind SpeedMPH,Gust SpeedMPH,PrecipitationIn,Events,Conditions,WindDirDegrees,DateUTC
12:00 AM,80,67,57,29.99,6,Calm,Calm,,,,Clear,,2014-01-26 06:00:00
12:00 AM,80.6,35.6,20,-9999,-9999.0,Calm,Calm,-,N/A,,Clear,0,2014-01-26 06:00:00
6:00 AM,80,68,58,29.96,12,NE,5.8,,,,Clear,40,2014-01-26 12:00:00
6:00 AM,80.6,68.0,65,-9999,-9999.0,NE,5.8,-,N/A,,Clear,40,2014-01-26 12:00:00
7:00 AM,80.6,68.0,65,-9999,-9999.0,NE,3.5,-,N/A,,Clear,40,2014-01-26 13:00:00
8:00 AM,82.4,68.0,62,-9999,6.2,NE,3.5,-,N/A,,Partly Cloudy,50,2014-01-26 14:00:00
9:00 AM,85,66,43,29.99,9,NE,6.9,,,,Scattered Clouds,40,2014-01-26 15:00:00
9:00 AM,84.2,66.2,55,-9999,6.2,NE,6.9,-,N/A,,Partly Cloudy,40,2014-01-26 15:00:00
11:00 AM,91.4,66.2,43,-9999,6.2,NE,5.8,-,N/A,,Partly Cloudy,40,2014-01-26 17:00:00
12:00 PM,92,65,31,29.97,9,NE,3.5,,,,Scattered Clouds,40,2014-01-26 18:00:00
12:00 PM,93.2,64.4,38,-9999,6.2,NE,3.5,-,N/A,,Partly Cloudy,40,2014-01-26 18:00:00
1:00 PM,95.0,64.4,36,-9999,6.2,NE,3.5,-,N/A,,Partly Cloudy,40,2014-01-26 19:00:00
2:00 PM,95.0,64.4,36,-9999,6.2,NE,4.6,-,N/A,,Partly Cloudy,40,2014-01-26 20:00:00
3:00 PM,94,68,32,29.86,9,NE,3.5,,,,Scattered Clouds,40,2014-01-26 21:00:00
3:00 PM,87.8,68.0,52,-9999,6.2,NE,3.5,-,N/A,,Partly Cloudy,40,2014-01-26 21:00:00
4:00 PM,-9999,-9999,N/A,-9999,-9999.0,North,-9999.0,-,N/A,,Unknown,0,2014-01-26 22:00:00
6:00 PM,85,74,64,29.86,7,SW,3.5,,,,Scattered Clouds,230,2014-01-27 00:00:00
6:00 PM,86.0,75.2,70,-9999,6.2,SW,3.5,-,N/A,,Partly Cloudy,230,2014-01-27 00:00:00
7:00 PM,82.4,69.8,66,-9999,-9999.0,Calm,Calm,-,N/A,,Clear,0,2014-01-27 01:00:00
8:00 PM,80.6,71.6,74,-9999,6.2,Calm,Calm,-,N/A,,Clear,0,2014-01-27 02:00:00
9:00 PM,79,72,72,29.93,6,Calm,Calm,,,,,,2014-01-27 03:00:00
9:00 PM,78.8,71.6,78,-9999,6.2,Calm,Calm,-,N/A,,Clear,0,2014-01-27 03:00:00
11:00 PM,78.8,71.6,78,-9999,-9999.0,North,-9999.0,-,N/A,,Clear,0,2014-01-27 05:00:00